Year,Month,Day,Hour,Minute,Value (Times are PST for insolation in W/m^2)
2009,02,26,00,00,0.00
2009,02,26,00,01,0.00
2009,02,26,00,02,0.00
2009,02,26,00,03,0.00
2009,02,26,00,04,0.00
2009,02,26,00,05,0.00
2009,02,26,00,06,0.00
2009,02,26,00,07,0.00
2009,02,26,00,08,0.00
2009,02,26,00,09,0.00
2009,02,26,00,10,0.00
2009,02,26,00,11,0.00
2009,02,26,00,12,0.00
2009,02,26,00,13,0.00
2009,02,26,00,14,0.00
2009,02,26,00,15,0.00
2009,02,26,00,16,0.00
2009,02,26,00,17,0.00
2009,02,26,00,18,0.00
2009,02,26,00,19,0.00
2009,02,26,00,20,0.00
2009,02,26,00,21,0.00
2009,02,26,00,22,0.00
2009,02,26,00,23,0.00
2009,02,26,00,24,0.00
2009,02,26,00,25,0.00
2009,02,26,00,26,0.00
2009,02,26,00,27,0.00
2009,02,26,00,28,0.00
2009,02,26,00,29,0.00
2009,02,26,00,30,0.00
2009,02,26,00,31,0.00
2009,02,26,00,32,0.00
2009,02,26,00,33,0.00
2009,02,26,00,34,0.00
2009,02,26,00,35,0.00
2009,02,26,00,36,0.00
2009,02,26,00,37,0.00
2009,02,26,00,38,0.00
2009,02,26,00,39,0.00
2009,02,26,00,40,0.00
2009,02,26,00,41,0.00
2009,02,26,00,42,0.00
2009,02,26,00,43,0.00
2009,02,26,00,44,0.00
2009,02,26,00,45,0.00
2009,02,26,00,46,0.00
2009,02,26,00,47,0.00
2009,02,26,00,48,0.00
2009,02,26,00,49,0.00
2009,02,26,00,50,0.00
2009,02,26,00,51,0.00
2009,02,26,00,52,0.00
2009,02,26,00,53,0.00
2009,02,26,00,54,0.00
2009,02,26,00,55,0.00
2009,02,26,00,56,0.00
2009,02,26,00,57,0.00
2009,02,26,00,58,0.00
2009,02,26,00,59,0.00
2009,02,26,01,00,0.00
2009,02,26,01,01,0.00
2009,02,26,01,02,0.00
2009,02,26,01,03,0.00
2009,02,26,01,04,0.00
2009,02,26,01,05,0.00
2009,02,26,01,06,0.00
2009,02,26,01,07,0.00
2009,02,26,01,08,0.00
2009,02,26,01,09,0.00
2009,02,26,01,10,0.00
2009,02,26,01,11,0.00
2009,02,26,01,12,0.00
2009,02,26,01,13,0.00
2009,02,26,01,14,0.00
2009,02,26,01,15,0.00
2009,02,26,01,16,0.00
2009,02,26,01,17,0.00
2009,02,26,01,18,0.00
2009,02,26,01,19,0.00
2009,02,26,01,20,0.00
2009,02,26,01,21,0.00
2009,02,26,01,22,0.00
2009,02,26,01,23,0.00
2009,02,26,01,24,0.00
2009,02,26,01,25,0.00
2009,02,26,01,26,0.00
2009,02,26,01,27,0.00
2009,02,26,01,28,0.00
2009,02,26,01,29,0.00
2009,02,26,01,30,0.00
2009,02,26,01,31,0.00
2009,02,26,01,32,0.00
2009,02,26,01,33,0.00
2009,02,26,01,34,0.00
2009,02,26,01,35,0.00
2009,02,26,01,36,0.00
2009,02,26,01,37,0.00
2009,02,26,01,38,0.00
2009,02,26,01,39,0.00
2009,02,26,01,40,0.00
2009,02,26,01,41,0.00
2009,02,26,01,42,0.00
2009,02,26,01,43,0.00
2009,02,26,01,44,0.00
2009,02,26,01,45,0.00
2009,02,26,01,46,0.00
2009,02,26,01,47,0.00
2009,02,26,01,48,0.00
2009,02,26,01,49,0.00
2009,02,26,01,50,0.00
2009,02,26,01,51,0.00
2009,02,26,01,52,0.00
2009,02,26,01,53,0.00
2009,02,26,01,54,0.00
2009,02,26,01,55,0.00
2009,02,26,01,56,0.00
2009,02,26,01,57,0.00
2009,02,26,01,58,0.00
2009,02,26,01,59,0.00
2009,02,26,02,00,0.00
2009,02,26,02,01,0.00
2009,02,26,02,02,0.00
2009,02,26,02,03,0.00
2009,02,26,02,04,0.00
2009,02,26,02,05,0.00
2009,02,26,02,06,0.00
2009,02,26,02,07,0.00
2009,02,26,02,08,0.00
2009,02,26,02,09,0.00
2009,02,26,02,10,0.00
2009,02,26,02,11,0.00
2009,02,26,02,12,0.00
2009,02,26,02,13,0.00
2009,02,26,02,14,0.00
2009,02,26,02,15,0.00
2009,02,26,02,16,0.00
2009,02,26,02,17,0.00
2009,02,26,02,18,0.00
2009,02,26,02,19,0.00
2009,02,26,02,20,0.00
2009,02,26,02,21,0.00
2009,02,26,02,22,0.00
2009,02,26,02,23,0.00
2009,02,26,02,24,0.00
2009,02,26,02,25,0.00
2009,02,26,02,26,0.00
2009,02,26,02,27,0.00
2009,02,26,02,28,0.00
2009,02,26,02,29,0.00
2009,02,26,02,30,0.00
2009,02,26,02,31,0.00
2009,02,26,02,32,0.00
2009,02,26,02,33,0.00
2009,02,26,02,34,0.00
2009,02,26,02,35,0.00
2009,02,26,02,36,0.00
2009,02,26,02,37,0.00
2009,02,26,02,38,0.00
2009,02,26,02,39,0.00
2009,02,26,02,40,0.00
2009,02,26,02,41,0.00
2009,02,26,02,42,0.00
2009,02,26,02,43,0.00
2009,02,26,02,44,0.00
2009,02,26,02,45,0.00
2009,02,26,02,46,0.00
2009,02,26,02,47,0.00
2009,02,26,02,48,0.00
2009,02,26,02,49,0.00
2009,02,26,02,50,0.00
2009,02,26,02,51,0.00
2009,02,26,02,52,0.00
2009,02,26,02,53,0.00
2009,02,26,02,54,0.00
2009,02,26,02,55,0.00
2009,02,26,02,56,0.00
2009,02,26,02,57,0.00
2009,02,26,02,58,0.00
2009,02,26,02,59,0.00
2009,02,26,03,00,0.00
2009,02,26,03,01,0.00
2009,02,26,03,02,0.00
2009,02,26,03,03,0.00
2009,02,26,03,04,0.00
2009,02,26,03,05,0.00
2009,02,26,03,06,0.00
2009,02,26,03,07,0.00
2009,02,26,03,08,0.00
2009,02,26,03,09,0.00
2009,02,26,03,10,0.00
2009,02,26,03,11,0.00
2009,02,26,03,12,0.00
2009,02,26,03,13,0.00
2009,02,26,03,14,0.00
2009,02,26,03,15,0.00
2009,02,26,03,16,0.00
2009,02,26,03,17,0.00
2009,02,26,03,18,0.00
2009,02,26,03,19,0.00
2009,02,26,03,20,0.00
2009,02,26,03,21,0.00
2009,02,26,03,22,0.00
2009,02,26,03,23,0.00
2009,02,26,03,24,0.00
2009,02,26,03,25,0.00
2009,02,26,03,26,0.00
2009,02,26,03,27,0.00
2009,02,26,03,28,0.00
2009,02,26,03,29,0.00
2009,02,26,03,30,0.00
2009,02,26,03,31,0.00
2009,02,26,03,32,0.00
2009,02,26,03,33,0.00
2009,02,26,03,34,0.00
2009,02,26,03,35,0.00
2009,02,26,03,36,0.00
2009,02,26,03,37,0.00
2009,02,26,03,38,0.00
2009,02,26,03,39,0.00
2009,02,26,03,40,0.00
2009,02,26,03,41,0.00
2009,02,26,03,42,0.00
2009,02,26,03,43,0.00
2009,02,26,03,44,0.00
2009,02,26,03,45,0.00
2009,02,26,03,46,0.00
2009,02,26,03,47,0.00
2009,02,26,03,48,0.00
2009,02,26,03,49,0.00
2009,02,26,03,50,0.00
2009,02,26,03,51,0.00
2009,02,26,03,52,0.00
2009,02,26,03,53,0.00
2009,02,26,03,54,0.00
2009,02,26,03,55,0.00
2009,02,26,03,56,0.00
2009,02,26,03,57,0.00
2009,02,26,03,58,0.00
2009,02,26,03,59,0.00
2009,02,26,04,00,0.00
2009,02,26,04,01,0.00
2009,02,26,04,02,0.00
2009,02,26,04,03,0.00
2009,02,26,04,04,0.00
2009,02,26,04,05,0.00
2009,02,26,04,06,0.00
2009,02,26,04,07,0.00
2009,02,26,04,08,0.00
2009,02,26,04,09,0.00
2009,02,26,04,10,0.00
2009,02,26,04,11,0.00
2009,02,26,04,12,0.00
2009,02,26,04,13,0.00
2009,02,26,04,14,0.00
2009,02,26,04,15,0.00
2009,02,26,04,16,0.00
2009,02,26,04,17,0.00
2009,02,26,04,18,0.00
2009,02,26,04,19,0.00
2009,02,26,04,20,0.00
2009,02,26,04,21,0.00
2009,02,26,04,22,0.00
2009,02,26,04,23,0.00
2009,02,26,04,24,0.00
2009,02,26,04,25,0.00
2009,02,26,04,26,0.00
2009,02,26,04,27,0.00
2009,02,26,04,28,0.00
2009,02,26,04,29,0.00
2009,02,26,04,30,0.00
2009,02,26,04,31,0.00
2009,02,26,04,32,0.00
2009,02,26,04,33,0.00
2009,02,26,04,34,0.00
2009,02,26,04,35,0.00
2009,02,26,04,36,0.00
2009,02,26,04,37,0.00
2009,02,26,04,38,0.00
2009,02,26,04,39,0.00
2009,02,26,04,40,0.00
2009,02,26,04,41,0.00
2009,02,26,04,42,0.00
2009,02,26,04,43,0.00
2009,02,26,04,44,0.00
2009,02,26,04,45,0.00
2009,02,26,04,46,0.00
2009,02,26,04,47,0.00
2009,02,26,04,48,0.00
2009,02,26,04,49,0.00
2009,02,26,04,50,0.00
2009,02,26,04,51,0.00
2009,02,26,04,52,0.00
2009,02,26,04,53,0.00
2009,02,26,04,54,0.00
2009,02,26,04,55,0.00
2009,02,26,04,56,0.00
2009,02,26,04,57,0.00
2009,02,26,04,58,0.00
2009,02,26,04,59,0.00
2009,02,26,05,00,0.00
2009,02,26,05,01,0.00
2009,02,26,05,02,0.00
2009,02,26,05,03,0.00
2009,02,26,05,04,0.00
2009,02,26,05,05,0.00
2009,02,26,05,06,0.00
2009,02,26,05,07,0.00
2009,02,26,05,08,0.00
2009,02,26,05,09,0.00
2009,02,26,05,10,0.00
2009,02,26,05,11,0.00
2009,02,26,05,12,0.00
2009,02,26,05,13,0.00
2009,02,26,05,14,0.00
2009,02,26,05,15,0.00
2009,02,26,05,16,0.00
2009,02,26,05,17,0.00
2009,02,26,05,18,0.00
2009,02,26,05,19,0.00
2009,02,26,05,20,0.00
2009,02,26,05,21,0.00
2009,02,26,05,22,0.00
2009,02,26,05,23,0.00
2009,02,26,05,24,0.00
2009,02,26,05,25,0.00
2009,02,26,05,26,0.00
2009,02,26,05,27,0.00
2009,02,26,05,28,0.00
2009,02,26,05,29,0.00
2009,02,26,05,30,0.00
2009,02,26,05,31,0.00
2009,02,26,05,32,0.00
2009,02,26,05,33,0.00
2009,02,26,05,34,0.00
2009,02,26,05,35,0.00
2009,02,26,05,36,0.00
2009,02,26,05,37,0.00
2009,02,26,05,38,0.00
2009,02,26,05,39,0.00
2009,02,26,05,40,0.00
2009,02,26,05,41,0.00
2009,02,26,05,42,0.00
2009,02,26,05,43,0.00
2009,02,26,05,44,0.00
2009,02,26,05,45,0.00
2009,02,26,05,46,0.00
2009,02,26,05,47,0.00
2009,02,26,05,48,0.00
2009,02,26,05,49,0.00
2009,02,26,05,50,0.00
2009,02,26,05,51,0.00
2009,02,26,05,52,0.00
2009,02,26,05,53,0.00
2009,02,26,05,54,0.00
2009,02,26,05,55,0.00
2009,02,26,05,56,0.00
2009,02,26,05,57,0.00
2009,02,26,05,58,0.00
2009,02,26,05,59,0.00
2009,02,26,06,00,0.00
2009,02,26,06,01,0.00
2009,02,26,06,02,0.00
2009,02,26,06,03,0.00
2009,02,26,06,04,0.00
2009,02,26,06,05,0.00
2009,02,26,06,06,0.00
2009,02,26,06,07,0.00
2009,02,26,06,08,0.00
2009,02,26,06,09,0.00
2009,02,26,06,10,0.00
2009,02,26,06,11,0.00
2009,02,26,06,12,0.00
2009,02,26,06,13,0.00
2009,02,26,06,14,0.00
2009,02,26,06,15,0.00
2009,02,26,06,16,0.00
2009,02,26,06,17,0.00
2009,02,26,06,18,0.00
2009,02,26,06,19,0.00
2009,02,26,06,20,0.00
2009,02,26,06,21,0.00
2009,02,26,06,22,0.00
2009,02,26,06,23,0.00
2009,02,26,06,24,0.00
2009,02,26,06,25,0.00
2009,02,26,06,26,0.00
2009,02,26,06,27,0.00
2009,02,26,06,28,0.00
2009,02,26,06,29,0.00
2009,02,26,06,30,0.00
2009,02,26,06,31,0.00
2009,02,26,06,32,0.00
2009,02,26,06,33,0.00
2009,02,26,06,34,0.00
2009,02,26,06,35,0.00
2009,02,26,06,36,0.00
2009,02,26,06,37,0.00
2009,02,26,06,38,0.00
2009,02,26,06,39,0.00
2009,02,26,06,40,0.00
2009,02,26,06,41,0.00
2009,02,26,06,42,0.00
2009,02,26,06,43,0.00
2009,02,26,06,44,0.00
2009,02,26,06,45,0.00
2009,02,26,06,46,0.00
2009,02,26,06,47,0.00
2009,02,26,06,48,0.00
2009,02,26,06,49,0.00
2009,02,26,06,50,0.00
2009,02,26,06,51,0.00
2009,02,26,06,52,0.00
2009,02,26,06,53,0.00
2009,02,26,06,54,0.00
2009,02,26,06,55,0.00
2009,02,26,06,56,0.00
2009,02,26,06,57,0.00
2009,02,26,06,58,0.00
2009,02,26,06,59,0.00
2009,02,26,07,00,0.00
2009,02,26,07,01,0.00
2009,02,26,07,02,0.00
2009,02,26,07,03,0.00
2009,02,26,07,04,0.00
2009,02,26,07,05,0.00
2009,02,26,07,06,0.00
2009,02,26,07,07,0.00
2009,02,26,07,08,0.00
2009,02,26,07,09,0.00
2009,02,26,07,10,0.00
2009,02,26,07,11,0.00
2009,02,26,07,12,0.00
2009,02,26,07,13,0.00
2009,02,26,07,14,0.00
2009,02,26,07,15,0.00
2009,02,26,07,16,0.00
2009,02,26,07,17,0.00
2009,02,26,07,18,0.00
2009,02,26,07,19,0.00
2009,02,26,07,20,0.00
2009,02,26,07,21,0.00
2009,02,26,07,22,0.00
2009,02,26,07,23,0.00
2009,02,26,07,24,0.00
2009,02,26,07,25,0.00
2009,02,26,07,26,0.00
2009,02,26,07,27,0.00
2009,02,26,07,28,0.00
2009,02,26,07,29,0.00
2009,02,26,07,30,0.00
2009,02,26,07,31,0.00
2009,02,26,07,32,0.00
2009,02,26,07,33,0.00
2009,02,26,07,34,0.00
2009,02,26,07,35,0.00
2009,02,26,07,36,0.00
2009,02,26,07,37,0.00
2009,02,26,07,38,0.00
2009,02,26,07,39,0.00
2009,02,26,07,40,0.00
2009,02,26,07,41,0.00
2009,02,26,07,42,2.80
2009,02,26,07,43,5.00
2009,02,26,07,44,5.00
2009,02,26,07,45,5.00
2009,02,26,07,46,5.00
2009,02,26,07,47,5.00
2009,02,26,07,48,5.00
2009,02,26,07,49,5.00
2009,02,26,07,50,5.00
2009,02,26,07,51,5.00
2009,02,26,07,52,5.00
2009,02,26,07,53,5.90
2009,02,26,07,54,7.00
2009,02,26,07,55,7.00
2009,02,26,07,56,7.00
2009,02,26,07,57,7.00
2009,02,26,07,58,7.00
2009,02,26,07,59,7.00
2009,02,26,08,00,7.00
2009,02,26,08,01,7.00
2009,02,26,08,02,7.00
2009,02,26,08,03,7.00
2009,02,26,08,04,7.00
2009,02,26,08,05,7.00
2009,02,26,08,06,8.20
2009,02,26,08,07,7.40
2009,02,26,08,08,7.00
2009,02,26,08,09,7.40
2009,02,26,08,10,9.00
2009,02,26,08,11,9.00
2009,02,26,08,12,9.00
2009,02,26,08,13,9.00
2009,02,26,08,14,9.00
2009,02,26,08,15,9.00
2009,02,26,08,16,9.00
2009,02,26,08,17,9.00
2009,02,26,08,18,9.00
2009,02,26,08,19,9.00
2009,02,26,08,20,9.00
2009,02,26,08,21,9.00
2009,02,26,08,22,9.80
2009,02,26,08,23,11.00
2009,02,26,08,24,11.00
2009,02,26,08,25,11.00
2009,02,26,08,26,11.10
2009,02,26,08,27,12.00
2009,02,26,08,28,12.00
2009,02,26,08,29,12.00
2009,02,26,08,30,12.00
2009,02,26,08,31,12.00
2009,02,26,08,32,12.30
2009,02,26,08,33,14.00
2009,02,26,08,34,14.00
2009,02,26,08,35,14.00
2009,02,26,08,36,14.00
2009,02,26,08,37,14.00
2009,02,26,08,38,14.00
2009,02,26,08,39,14.00
2009,02,26,08,40,14.00
2009,02,26,08,41,14.00
2009,02,26,08,42,15.50
2009,02,26,08,43,16.00
2009,02,26,08,44,16.00
2009,02,26,08,45,16.70
2009,02,26,08,46,18.00
2009,02,26,08,47,18.00
2009,02,26,08,48,18.80
2009,02,26,08,49,19.20
2009,02,26,08,50,21.00
2009,02,26,08,51,21.00
2009,02,26,08,52,22.00
2009,02,26,08,53,23.00
2009,02,26,08,54,23.00
2009,02,26,08,55,23.00
2009,02,26,08,56,22.50
2009,02,26,08,57,21.00
2009,02,26,08,58,21.00
2009,02,26,08,59,21.00
2009,02,26,09,00,19.30
2009,02,26,09,01,19.00
2009,02,26,09,02,19.00
2009,02,26,09,03,19.00
2009,02,26,09,04,19.00
2009,02,26,09,05,19.00
2009,02,26,09,06,19.00
2009,02,26,09,07,18.10
2009,02,26,09,08,19.00
2009,02,26,09,09,19.80
2009,02,26,09,10,21.00
2009,02,26,09,11,22.50
2009,02,26,09,12,24.70
2009,02,26,09,13,25.00
2009,02,26,09,14,25.00
2009,02,26,09,15,25.00
2009,02,26,09,16,25.00
2009,02,26,09,17,25.00
2009,02,26,09,18,25.00
2009,02,26,09,19,25.00
2009,02,26,09,20,25.00
2009,02,26,09,21,25.00
2009,02,26,09,22,25.00
2009,02,26,09,23,25.00
2009,02,26,09,24,25.90
2009,02,26,09,25,26.00
2009,02,26,09,26,26.00
2009,02,26,09,27,26.00
2009,02,26,09,28,26.00
2009,02,26,09,29,26.00
2009,02,26,09,30,27.90
2009,02,26,09,31,28.00
2009,02,26,09,32,28.70
2009,02,26,09,33,31.00
2009,02,26,09,34,32.00
2009,02,26,09,35,32.00
2009,02,26,09,36,32.80
2009,02,26,09,37,32.00
2009,02,26,09,38,32.00
2009,02,26,09,39,32.00
2009,02,26,09,40,32.00
2009,02,26,09,41,32.80
2009,02,26,09,42,33.20
2009,02,26,09,43,35.50
2009,02,26,09,44,37.00
2009,02,26,09,45,37.00
2009,02,26,09,46,37.00
2009,02,26,09,47,35.40
2009,02,26,09,48,34.70
2009,02,26,09,49,33.00
2009,02,26,09,50,32.60
2009,02,26,09,51,32.50
2009,02,26,09,52,33.00
2009,02,26,09,53,32.20
2009,02,26,09,54,31.70
2009,02,26,09,55,29.40
2009,02,26,09,56,27.10
2009,02,26,09,57,25.40
2009,02,26,09,58,25.00
2009,02,26,09,59,25.00
2009,02,26,10,00,24.60
2009,02,26,10,01,23.60
2009,02,26,10,02,25.50
2009,02,26,10,03,30.40
2009,02,26,10,04,34.50
2009,02,26,10,05,33.80
2009,02,26,10,06,37.70
2009,02,26,10,07,30.50
2009,02,26,10,08,27.00
2009,02,26,10,09,28.00
2009,02,26,10,10,31.80
2009,02,26,10,11,34.80
2009,02,26,10,12,36.80
2009,02,26,10,13,42.00
2009,02,26,10,14,41.00
2009,02,26,10,15,41.40
2009,02,26,10,16,42.00
2009,02,26,10,17,43.90
2009,02,26,10,18,44.00
2009,02,26,10,19,44.80
2009,02,26,10,20,46.00
2009,02,26,10,21,46.00
2009,02,26,10,22,46.00
2009,02,26,10,23,46.10
2009,02,26,10,24,47.00
2009,02,26,10,25,47.00
2009,02,26,10,26,47.00
2009,02,26,10,27,48.40
2009,02,26,10,28,49.00
2009,02,26,10,29,49.00
2009,02,26,10,30,49.00
2009,02,26,10,31,49.00
2009,02,26,10,32,49.00
2009,02,26,10,33,49.00
2009,02,26,10,34,49.00
2009,02,26,10,35,49.30
2009,02,26,10,36,51.00
2009,02,26,10,37,51.00
2009,02,26,10,38,52.20
2009,02,26,10,39,53.00
2009,02,26,10,40,51.30
2009,02,26,10,41,51.00
2009,02,26,10,42,51.70
2009,02,26,10,43,53.00
2009,02,26,10,44,53.00
2009,02,26,10,45,53.00
2009,02,26,10,46,53.00
2009,02,26,10,47,53.00
2009,02,26,10,48,53.00
2009,02,26,10,49,53.00
2009,02,26,10,50,53.60
2009,02,26,10,51,54.00
2009,02,26,10,52,54.00
2009,02,26,10,53,54.00
2009,02,26,10,54,54.70
2009,02,26,10,55,56.00
2009,02,26,10,56,56.00
2009,02,26,10,57,56.00
2009,02,26,10,58,57.90
2009,02,26,10,59,58.00
2009,02,26,11,00,58.00
2009,02,26,11,01,59.00
2009,02,26,11,02,60.00
2009,02,26,11,03,61.70
2009,02,26,11,04,62.10
2009,02,26,11,05,63.00
2009,02,26,11,06,63.80
2009,02,26,11,07,65.00
2009,02,26,11,08,66.40
2009,02,26,11,09,68.80
2009,02,26,11,10,70.30
2009,02,26,11,11,73.30
2009,02,26,11,12,76.40
2009,02,26,11,13,79.30
2009,02,26,11,14,84.50
2009,02,26,11,15,89.40
2009,02,26,11,16,95.40
2009,02,26,11,17,99.90
2009,02,26,11,18,105.30
2009,02,26,11,19,109.30
2009,02,26,11,20,115.90
2009,02,26,11,21,124.20
2009,02,26,11,22,130.30
2009,02,26,11,23,131.40
2009,02,26,11,24,132.20
2009,02,26,11,25,137.40
2009,02,26,11,26,151.60
2009,02,26,11,27,164.90
2009,02,26,11,28,179.80
2009,02,26,11,29,142.50
2009,02,26,11,30,97.00
2009,02,26,11,31,93.20
2009,02,26,11,32,95.50
2009,02,26,11,33,102.10
2009,02,26,11,34,111.20
2009,02,26,11,35,122.80
2009,02,26,11,36,136.00
2009,02,26,11,37,186.20
2009,02,26,11,38,209.00
2009,02,26,11,39,212.90
2009,02,26,11,40,237.80
2009,02,26,11,41,207.70
2009,02,26,11,42,230.00
2009,02,26,11,43,251.00
2009,02,26,11,44,256.70
2009,02,26,11,45,283.00
2009,02,26,11,46,328.80
2009,02,26,11,47,466.00
2009,02,26,11,48,564.50
2009,02,26,11,49,645.00
2009,02,26,11,50,645.00
2009,02,26,11,51,645.00
2009,02,26,11,52,645.00
2009,02,26,11,53,645.00
2009,02,26,11,54,645.00
2009,02,26,11,55,645.00
2009,02,26,11,56,645.00
2009,02,26,11,57,200.30
2009,02,26,11,58,210.40
2009,02,26,11,59,230.00
2009,02,26,12,00,230.00
2009,02,26,12,01,230.00
2009,02,26,12,02,758.80
2009,02,26,12,03,869.60
2009,02,26,12,04,850.90
2009,02,26,12,05,814.00
2009,02,26,12,06,818.20
2009,02,26,12,07,807.50
2009,02,26,12,08,805.50
2009,02,26,12,09,804.60
2009,02,26,12,10,755.00
2009,02,26,12,11,762.70
2009,02,26,12,12,723.50
2009,02,26,12,13,767.40
2009,02,26,12,14,867.00
2009,02,26,12,15,826.50
2009,02,26,12,16,816.00
2009,02,26,12,17,637.50
2009,02,26,12,18,485.00
2009,02,26,12,19,459.40
2009,02,26,12,20,473.90
2009,02,26,12,21,409.80
2009,02,26,12,22,383.00
2009,02,26,12,23,381.50
2009,02,26,12,24,380.00
2009,02,26,12,25,372.40
2009,02,26,12,26,352.60
2009,02,26,12,27,319.20
2009,02,26,12,28,305.10
2009,02,26,12,29,304.90
2009,02,26,12,30,318.30
2009,02,26,12,31,334.00
2009,02,26,12,32,338.00
2009,02,26,12,33,332.00
2009,02,26,12,34,320.00
2009,02,26,12,35,297.20
2009,02,26,12,36,288.80
2009,02,26,12,37,281.90
2009,02,26,12,38,277.40
2009,02,26,12,39,274.60
2009,02,26,12,40,279.10
2009,02,26,12,41,290.20
2009,02,26,12,42,305.30
2009,02,26,12,43,316.90
2009,02,26,12,44,323.00
2009,02,26,12,45,323.00
2009,02,26,12,46,321.60
2009,02,26,12,47,318.80
2009,02,26,12,48,318.00
2009,02,26,12,49,322.80
2009,02,26,12,50,330.80
2009,02,26,12,51,339.80
2009,02,26,12,52,345.50
2009,02,26,12,53,346.20
2009,02,26,12,54,336.80
2009,02,26,12,55,324.00
2009,02,26,12,56,320.00
2009,02,26,12,57,320.00
2009,02,26,12,58,320.00
2009,02,26,12,59,317.40
2009,02,26,13,00,310.40
2009,02,26,13,01,308.10
2009,02,26,13,02,309.50
2009,02,26,13,03,312.50
2009,02,26,13,04,315.00
2009,02,26,13,05,317.00
2009,02,26,13,06,319.70
2009,02,26,13,07,317.90
2009,02,26,13,08,315.70
2009,02,26,13,09,312.50
2009,02,26,13,10,308.50
2009,02,26,13,11,306.60
2009,02,26,13,12,306.00
2009,02,26,13,13,306.20
2009,02,26,13,14,308.00
2009,02,26,13,15,307.10
2009,02,26,13,16,306.00
2009,02,26,13,17,306.00
2009,02,26,13,18,306.00
2009,02,26,13,19,309.30
2009,02,26,13,20,324.30
2009,02,26,13,21,337.20
2009,02,26,13,22,319.20
2009,02,26,13,23,325.20
2009,02,26,13,24,331.50
2009,02,26,13,25,329.50
2009,02,26,13,26,325.80
2009,02,26,13,27,323.00
2009,02,26,13,28,328.70
2009,02,26,13,29,336.50
2009,02,26,13,30,345.30
2009,02,26,13,31,360.80
2009,02,26,13,32,345.50
2009,02,26,13,33,337.70
2009,02,26,13,34,325.60
2009,02,26,13,35,316.20
2009,02,26,13,36,309.80
2009,02,26,13,37,312.20
2009,02,26,13,38,318.80
2009,02,26,13,39,324.10
2009,02,26,13,40,325.00
2009,02,26,13,41,322.60
2009,02,26,13,42,322.10
2009,02,26,13,43,324.10
2009,02,26,13,44,327.00
2009,02,26,13,45,340.70
2009,02,26,13,46,346.50
2009,02,26,13,47,339.00
2009,02,26,13,48,339.70
2009,02,26,13,49,343.50
2009,02,26,13,50,333.60
2009,02,26,13,51,325.40
2009,02,26,13,52,317.10
2009,02,26,13,53,307.40
2009,02,26,13,54,301.70
2009,02,26,13,55,299.00
2009,02,26,13,56,297.40
2009,02,26,13,57,291.10
2009,02,26,13,58,284.50
2009,02,26,13,59,275.40
2009,02,26,14,00,265.60
2009,02,26,14,01,256.50
2009,02,26,14,02,248.70
2009,02,26,14,03,242.20
2009,02,26,14,04,238.00
2009,02,26,14,05,236.10
2009,02,26,14,06,233.60
2009,02,26,14,07,230.90
2009,02,26,14,08,228.10
2009,02,26,14,09,225.80
2009,02,26,14,10,226.50
2009,02,26,14,11,227.10
2009,02,26,14,12,229.20
2009,02,26,14,13,230.70
2009,02,26,14,14,232.00
2009,02,26,14,15,232.00
2009,02,26,14,16,230.50
2009,02,26,14,17,226.90
2009,02,26,14,18,222.60
2009,02,26,14,19,221.00
2009,02,26,14,20,222.10
2009,02,26,14,21,225.60
2009,02,26,14,22,229.40
2009,02,26,14,23,232.30
2009,02,26,14,24,236.20
2009,02,26,14,25,237.00
2009,02,26,14,26,236.40
2009,02,26,14,27,233.30
2009,02,26,14,28,228.00
2009,02,26,14,29,222.90
2009,02,26,14,30,219.50
2009,02,26,14,31,218.00
2009,02,26,14,32,214.10
2009,02,26,14,33,208.10
2009,02,26,14,34,206.20
2009,02,26,14,35,203.80
2009,02,26,14,36,201.10
2009,02,26,14,37,199.00
2009,02,26,14,38,196.80
2009,02,26,14,39,192.90
2009,02,26,14,40,186.60
2009,02,26,14,41,185.10
2009,02,26,14,42,187.20
2009,02,26,14,43,192.20
2009,02,26,14,44,197.50
2009,02,26,14,45,202.80
2009,02,26,14,46,208.80
2009,02,26,14,47,214.00
2009,02,26,14,48,215.30
2009,02,26,14,49,215.80
2009,02,26,14,50,208.80
2009,02,26,14,51,201.30
2009,02,26,14,52,197.30
2009,02,26,14,53,197.60
2009,02,26,14,54,201.30
2009,02,26,14,55,206.50
2009,02,26,14,56,210.30
2009,02,26,14,57,211.00
2009,02,26,14,58,207.30
2009,02,26,14,59,205.60
2009,02,26,15,00,203.30
2009,02,26,15,01,201.00
2009,02,26,15,02,200.00
2009,02,26,15,03,199.20
2009,02,26,15,04,199.90
2009,02,26,15,05,200.00
2009,02,26,15,06,202.40
2009,02,26,15,07,206.60
2009,02,26,15,08,208.40
2009,02,26,15,09,203.40
2009,02,26,15,10,197.20
2009,02,26,15,11,197.00
2009,02,26,15,12,197.80
2009,02,26,15,13,199.00
2009,02,26,15,14,199.00
2009,02,26,15,15,197.30
2009,02,26,15,16,194.20
2009,02,26,15,17,188.70
2009,02,26,15,18,183.30
2009,02,26,15,19,178.10
2009,02,26,15,20,172.50
2009,02,26,15,21,165.90
2009,02,26,15,22,161.60
2009,02,26,15,23,159.40
2009,02,26,15,24,158.00
2009,02,26,15,25,156.80
2009,02,26,15,26,156.00
2009,02,26,15,27,157.80
2009,02,26,15,28,158.80
2009,02,26,15,29,163.10
2009,02,26,15,30,165.00
2009,02,26,15,31,166.20
2009,02,26,15,32,167.00
2009,02,26,15,33,168.70
2009,02,26,15,34,166.60
2009,02,26,15,35,163.20
2009,02,26,15,36,158.10
2009,02,26,15,37,153.00
2009,02,26,15,38,149.50
2009,02,26,15,39,148.10
2009,02,26,15,40,148.00
2009,02,26,15,41,147.30
2009,02,26,15,42,146.00
2009,02,26,15,43,146.00
2009,02,26,15,44,147.60
2009,02,26,15,45,147.80
2009,02,26,15,46,145.00
2009,02,26,15,47,140.80
2009,02,26,15,48,137.90
2009,02,26,15,49,135.70
2009,02,26,15,50,134.20
2009,02,26,15,51,134.00
2009,02,26,15,52,133.50
2009,02,26,15,53,132.00
2009,02,26,15,54,132.00
2009,02,26,15,55,132.00
2009,02,26,15,56,132.00
2009,02,26,15,57,129.70
2009,02,26,15,58,127.10
2009,02,26,15,59,125.00
2009,02,26,16,00,125.00
2009,02,26,16,01,126.40
2009,02,26,16,02,131.20
2009,02,26,16,03,135.30
2009,02,26,16,04,137.00
2009,02,26,16,05,136.10
2009,02,26,16,06,134.40
2009,02,26,16,07,132.50
2009,02,26,16,08,132.00
2009,02,26,16,09,132.00
2009,02,26,16,10,131.30
2009,02,26,16,11,129.10
2009,02,26,16,12,126.20
2009,02,26,16,13,123.40
2009,02,26,16,14,118.30
2009,02,26,16,15,113.40
2009,02,26,16,16,110.30
2009,02,26,16,17,110.00
2009,02,26,16,18,112.30
2009,02,26,16,19,115.20
2009,02,26,16,20,131.00
2009,02,26,16,21,114.00
2009,02,26,16,22,112.80
2009,02,26,16,23,109.90
2009,02,26,16,24,106.40
2009,02,26,16,25,104.20
2009,02,26,16,26,101.80
2009,02,26,16,27,99.20
2009,02,26,16,28,96.20
2009,02,26,16,29,92.80
2009,02,26,16,30,90.30
2009,02,26,16,31,88.30
2009,02,26,16,32,85.70
2009,02,26,16,33,82.50
2009,02,26,16,34,80.20
2009,02,26,16,35,77.80
2009,02,26,16,36,76.30
2009,02,26,16,37,74.30
2009,02,26,16,38,71.70
2009,02,26,16,39,70.00
2009,02,26,16,40,69.60
2009,02,26,16,41,69.00
2009,02,26,16,42,67.50
2009,02,26,16,43,65.20
2009,02,26,16,44,61.40
2009,02,26,16,45,57.40
2009,02,26,16,46,56.00
2009,02,26,16,47,54.70
2009,02,26,16,48,54.00
2009,02,26,16,49,54.00
2009,02,26,16,50,52.70
2009,02,26,16,51,51.00
2009,02,26,16,52,50.10
2009,02,26,16,53,49.00
2009,02,26,16,54,47.50
2009,02,26,16,55,45.90
2009,02,26,16,56,44.00
2009,02,26,16,57,43.30
2009,02,26,16,58,42.00
2009,02,26,16,59,42.00
2009,02,26,17,00,43.50
2009,02,26,17,01,44.00
2009,02,26,17,02,43.60
2009,02,26,17,03,41.30
2009,02,26,17,04,39.50
2009,02,26,17,05,39.00
2009,02,26,17,06,37.30
2009,02,26,17,07,35.10
2009,02,26,17,08,34.60
2009,02,26,17,09,33.00
2009,02,26,17,10,32.50
2009,02,26,17,11,32.00
2009,02,26,17,12,30.40
2009,02,26,17,13,29.80
2009,02,26,17,14,27.50
2009,02,26,17,15,26.00
2009,02,26,17,16,25.50
2009,02,26,17,17,25.00
2009,02,26,17,18,23.30
2009,02,26,17,19,23.00
2009,02,26,17,20,22.40
2009,02,26,17,21,21.00
2009,02,26,17,22,21.00
2009,02,26,17,23,19.50
2009,02,26,17,24,19.00
2009,02,26,17,25,18.00
2009,02,26,17,26,17.40
2009,02,26,17,27,16.00